11-10-2022, 00:00:07,    337,    0.0,    4.6,   0.00,   0.00, 1022.2,   77.7, -999.0
11-10-2022, 00:00:17,    337,    0.0,    4.6,   0.00,   0.00, 1022.2,   77.7, -999.0
11-10-2022, 00:00:27,    337,    0.0,    4.6,   0.00,   0.00, 1022.2,   77.7, -999.0
11-10-2022, 00:00:37,    337,    0.0,    4.6,   0.00,   0.00, 1022.2,   77.6, -999.0
11-10-2022, 00:00:46,    337,    0.0,    4.6,   0.00,   0.00, 1022.2,   77.7, -999.0
11-10-2022, 00:00:57,    337,    0.0,    4.6,   0.00,   0.00, 1022.2,   77.8, -999.0
11-10-2022, 00:01:07,    337,    0.0,    4.6,   0.00,   0.00, 1022.2,   77.9, -999.0
11-10-2022, 00:01:16,    337,    0.0,    4.6,   0.00,   0.00, 1022.2,   78.0, -999.0
11-10-2022, 00:01:27,    337,    0.0,    4.6,   0.00,   0.00, 1022.2,   77.9, -999.0
11-10-2022, 00:01:36,    337,    0.0,    4.5,   0.00,   0.00, 1022.2,   78.0, -999.0
11-10-2022, 00:01:46,    337,    0.0,    4.6,   0.00,   0.00, 1022.3,   77.9, -999.0
11-10-2022, 00:01:56,    337,    0.0,    4.6,   0.00,   0.00, 1022.3,   78.0, -999.0
11-10-2022, 00:02:06,    337,    0.0,    4.6,   0.00,   0.00, 1022.3,   78.0, -999.0
11-10-2022, 00:02:16,    337,    0.0,    4.6,   0.00,   0.00, 1022.2,   78.1, -999.0
11-10-2022, 00:02:26,    337,    0.0,    4.6,   0.00,   0.00, 1022.2,   78.0, -999.0
11-10-2022, 00:02:36,    337,    0.0,    4.7,   0.00,   0.00, 1022.2,   78.1, -999.0
11-10-2022, 00:02:46,    337,    0.0,    4.8,   0.00,   0.00, 1022.3,   78.0, -999.0
11-10-2022, 00:02:56,    337,    0.0,    4.7,   0.00,   0.00, 1022.3,   77.9, -999.0
11-10-2022, 00:03:06,    337,    0.0,    4.7,   0.00,   0.00, 1022.3,   77.9, -999.0
11-10-2022, 00:03:16,    337,    0.0,    4.7,   0.00,   0.00, 1022.3,   77.7, -999.0
11-10-2022, 00:03:26,    337,    0.0,    4.7,   0.00,   0.00, 1022.3,   77.8, -999.0
11-10-2022, 00:03:36,    337,    0.0,    4.7,   0.00,   0.00, 1022.3,   77.6, -999.0
11-10-2022, 00:03:46,    337,    0.0,    4.7,   0.00,   0.00, 1022.2,   77.5, -999.0
11-10-2022, 00:03:55,    337,    0.0,    4.7,   0.00,   0.00, 1022.2,   77.6, -999.0
11-10-2022, 00:04:06,    337,    0.0,    4.7,   0.00,   0.00, 1022.2,   77.5, -999.0
11-10-2022, 00:04:16,    337,    0.0,    4.7,   0.00,   0.00, 1022.2,   77.7, -999.0
11-10-2022, 00:04:25,    337,    0.0,    4.7,   0.00,   0.00, 1022.2,   77.9, -999.0
11-10-2022, 00:04:36,    337,    0.0,    4.7,   0.00,   0.00, 1022.2,   78.0, -999.0
11-10-2022, 00:04:45,    337,    0.0,    4.7,   0.00,   0.00, 1022.2,   78.0, -999.0
11-10-2022, 00:04:55,    337,    0.0,    4.7,   0.00,   0.00, 1022.2,   77.9, -999.0
11-10-2022, 00:05:05,    337,    0.0,    4.7,   0.00,   0.00, 1022.2,   77.9, -999.0
11-10-2022, 00:05:15,    337,    0.0,    4.7,   0.00,   0.00, 1022.2,   78.0, -999.0
11-10-2022, 00:05:25,    337,    0.0,    4.7,   0.00,   0.00, 1022.2,   78.1, -999.0
11-10-2022, 00:05:35,    337,    0.0,    4.7,   0.00,   0.00, 1022.2,   78.0, -999.0
11-10-2022, 00:05:45,    337,    0.0,    4.7,   0.00,   0.00, 1022.2,   78.0, -999.0
11-10-2022, 00:05:55,    337,    0.0,    4.7,   0.00,   0.00, 1022.2,   77.9, -999.0
11-10-2022, 00:06:05,    337,    0.0,    4.7,   0.00,   0.00, 1022.2,   77.8, -999.0
11-10-2022, 00:06:15,    337,    0.0,    4.7,   0.00,   0.00, 1022.2,   77.7, -999.0
11-10-2022, 00:06:25,    337,    0.0,    4.6,   0.00,   0.00, 1022.2,   77.9, -999.0
11-10-2022, 00:06:35,    337,    0.0,    4.7,   0.00,   0.00, 1022.2,   77.8, -999.0
11-10-2022, 00:06:45,    337,    0.0,    4.7,   0.00,   0.00, 1022.2,   78.1, -999.0
11-10-2022, 00:06:55,    337,    0.0,    4.7,   0.00,   0.00, 1022.1,   78.0, -999.0
11-10-2022, 00:07:04,    337,    0.0,    4.7,   0.00,   0.00, 1022.2,   78.0, -999.0
11-10-2022, 00:07:15,    337,    0.0,    4.7,   0.00,   0.00, 1022.2,   78.0, -999.0
11-10-2022, 00:07:25,    337,    0.0,    4.7,   0.00,   0.00, 1022.2,   78.1, -999.0
11-10-2022, 00:07:34,    337,    0.0,    4.8,   0.00,   0.00, 1022.1,   78.1, -999.0
11-10-2022, 00:07:44,    337,    0.0,    4.7,   0.00,   0.00, 1022.1,   78.0, -999.0
11-10-2022, 00:07:55,    337,    0.0,    4.7,   0.00,   0.00, 1022.1,   77.9, -999.0
11-10-2022, 00:08:04,    337,    0.0,    4.7,   0.00,   0.00, 1022.1,   77.8, -999.0
11-10-2022, 00:08:14,    337,    0.0,    4.6,   0.00,   0.00, 1022.1,   77.8, -999.0
11-10-2022, 00:08:24,    337,    0.0,    4.5,   0.00,   0.00, 1022.1,   77.7, -999.0
11-10-2022, 00:08:34,    337,    0.0,    4.6,   0.00,   0.00, 1022.1,   77.7, -999.0
11-10-2022, 00:08:44,    337,    0.0,    4.6,   0.00,   0.00, 1022.1,   77.7, -999.0
11-10-2022, 00:08:54,    337,    0.0,    4.5,   0.00,   0.00, 1022.2,   77.7, -999.0
11-10-2022, 00:09:04,    337,    0.0,    4.5,   0.00,   0.00, 1022.1,   77.8, -999.0
11-10-2022, 00:09:14,    337,    0.0,    4.5,   0.00,   0.00, 1022.2,   77.9, -999.0
11-10-2022, 00:09:24,    337,    0.0,    4.4,   0.00,   0.00, 1022.2,   78.0, -999.0
11-10-2022, 00:09:34,    337,    0.0,    4.4,   0.00,   0.00, 1022.1,   77.9, -999.0
11-10-2022, 00:09:44,    337,    0.0,    4.4,   0.00,   0.00, 1022.2,   77.9, -999.0
11-10-2022, 00:09:54,    337,    0.0,    4.4,   0.00,   0.00, 1022.1,   78.0, -999.0
11-10-2022, 00:10:04,    337,    0.0,    4.4,   0.00,   0.00, 1022.1,   78.0, -999.0
11-10-2022, 00:10:13,    337,    0.0,    4.3,   0.00,   0.00, 1022.1,   78.0, -999.0
11-10-2022, 00:10:24,    337,    0.0,    4.4,   0.00,   0.00, 1022.2,   78.2, -999.0
11-10-2022, 00:10:34,    337,    0.0,    4.5,   0.00,   0.00, 1022.2,   78.3, -999.0
11-10-2022, 00:10:43,    337,    0.0,    4.3,   0.00,   0.00, 1022.2,   78.3, -999.0
11-10-2022, 00:10:53,    337,    0.0,    4.4,   0.00,   0.00, 1022.2,   78.4, -999.0
11-10-2022, 00:11:04,    337,    0.0,    4.3,   0.00,   0.00, 1022.2,   78.4, -999.0
11-10-2022, 00:11:13,    337,    0.0,    4.3,   0.00,   0.00, 1022.2,   78.4, -999.0
11-10-2022, 00:11:23,    337,    0.0,    4.3,   0.00,   0.00, 1022.2,   78.4, -999.0
11-10-2022, 00:11:33,    337,    0.0,    4.3,   0.00,   0.00, 1022.2,   78.4, -999.0
11-10-2022, 00:11:43,    337,    0.0,    4.3,   0.00,   0.00, 1022.2,   78.3, -999.0
11-10-2022, 00:11:53,    337,    0.0,    4.3,   0.00,   0.00, 1022.2,   78.3, -999.0
11-10-2022, 00:12:03,    337,    0.0,    4.2,   0.00,   0.00, 1022.2,   78.3, -999.0
11-10-2022, 00:12:13,    337,    0.0,    4.3,   0.00,   0.00, 1022.3,   78.4, -999.0
11-10-2022, 00:12:23,    338,    0.0,    4.3,   0.00,   0.00, 1022.2,   78.5, -999.0
11-10-2022, 00:12:33,    337,    0.0,    4.3,   0.00,   0.00, 1022.3,   78.5, -999.0
11-10-2022, 00:12:43,    337,    0.0,    4.4,   0.00,   0.00, 1022.3,   78.6, -999.0
11-10-2022, 00:12:53,    337,    0.0,    4.3,   0.00,   0.00, 1022.3,   78.5, -999.0
11-10-2022, 00:13:03,    337,    0.0,    4.3,   0.00,   0.00, 1022.3,   78.5, -999.0
11-10-2022, 00:13:13,    337,    0.0,    4.3,   0.00,   0.00, 1022.3,   78.6, -999.0
11-10-2022, 00:13:22,    337,    0.0,    4.3,   0.00,   0.00, 1022.3,   78.5, -999.0
11-10-2022, 00:13:33,    337,    0.0,    4.3,   0.00,   0.00, 1022.3,   78.6, -999.0
11-10-2022, 00:13:43,    337,    0.0,    4.3,   0.00,   0.00, 1022.3,   78.7, -999.0
11-10-2022, 00:13:52,    337,    0.0,    4.3,   0.00,   0.00, 1022.3,   78.6, -999.0
11-10-2022, 00:14:02,    337,    0.0,    4.2,   0.00,   0.00, 1022.3,   78.6, -999.0
11-10-2022, 00:14:13,    337,    0.0,    4.2,   0.00,   0.00, 1022.3,   78.5, -999.0
11-10-2022, 00:14:22,    337,    0.0,    4.2,   0.00,   0.00, 1022.3,   78.6, -999.0
11-10-2022, 00:14:32,    337,    0.0,    4.2,   0.00,   0.00, 1022.3,   78.5, -999.0
11-10-2022, 00:14:42,    337,    0.0,    4.2,   0.00,   0.00, 1022.3,   78.6, -999.0
11-10-2022, 00:14:52,    337,    0.0,    4.2,   0.00,   0.00, 1022.3,   78.7, -999.0
11-10-2022, 00:15:02,    337,    0.0,    4.2,   0.00,   0.00, 1022.3,   78.7, -999.0
11-10-2022, 00:15:12,    337,    0.0,    4.2,   0.00,   0.00, 1022.3,   78.8, -999.0
11-10-2022, 00:15:22,    337,    0.0,    4.2,   0.00,   0.00, 1022.3,   78.8, -999.0
11-10-2022, 00:15:32,    337,    0.0,    4.2,   0.00,   0.00, 1022.3,   78.9, -999.0
11-10-2022, 00:15:42,    337,    0.0,    4.3,   0.00,   0.00, 1022.3,   78.9, -999.0
11-10-2022, 00:15:52,    337,    0.0,    4.3,   0.00,   0.00, 1022.3,   79.0, -999.0
11-10-2022, 00:16:02,    337,    0.0,    4.3,   0.00,   0.00, 1022.3,   79.1, -999.0
11-10-2022, 00:16:12,    337,    0.0,    4.4,   0.00,   0.00, 1022.2,   79.2, -999.0
11-10-2022, 00:16:22,    337,    0.0,    4.4,   0.00,   0.00, 1022.3,   79.3, -999.0
11-10-2022, 00:16:31,    337,    0.0,    4.4,   0.00,   0.00, 1022.2,   79.4, -999.0
11-10-2022, 00:16:42,    337,    0.0,    4.4,   0.00,   0.00, 1022.2,   79.4, -999.0
11-10-2022, 00:16:52,    337,    0.0,    4.4,   0.00,   0.00, 1022.2,   79.2, -999.0
11-10-2022, 00:17:01,    337,    0.0,    4.4,   0.00,   0.00, 1022.2,   79.2, -999.0
11-10-2022, 00:17:11,    337,    0.0,    4.4,   0.00,   0.00, 1022.2,   79.2, -999.0
11-10-2022, 00:17:21,    337,    0.0,    4.5,   0.00,   0.00, 1022.2,   79.2, -999.0
11-10-2022, 00:17:31,    337,    0.0,    4.6,   0.00,   0.00, 1022.3,   79.4, -999.0
11-10-2022, 00:17:41,    337,    0.0,    4.6,   0.00,   0.00, 1022.2,   79.3, -999.0
11-10-2022, 00:17:51,    337,    0.0,    4.6,   0.00,   0.00, 1022.2,   78.9, -999.0
11-10-2022, 00:18:01,    337,    0.0,    4.6,   0.00,   0.00, 1022.2,   78.9, -999.0
11-10-2022, 00:18:11,    337,    0.0,    4.6,   0.00,   0.00, 1022.2,   78.8, -999.0
11-10-2022, 00:18:21,    337,    0.0,    4.5,   0.00,   0.00, 1022.2,   78.6, -999.0
11-10-2022, 00:18:31,    337,    0.0,    4.5,   0.00,   0.00, 1022.2,   78.6, -999.0
11-10-2022, 00:18:41,    337,    0.0,    4.6,   0.00,   0.00, 1022.2,   78.6, -999.0
11-10-2022, 00:18:51,    337,    0.0,    4.6,   0.00,   0.00, 1022.2,   78.6, -999.0
11-10-2022, 00:19:01,    337,    0.0,    4.6,   0.00,   0.00, 1022.2,   78.6, -999.0
11-10-2022, 00:19:11,    337,    0.0,    4.6,   0.00,   0.00, 1022.2,   78.5, -999.0
11-10-2022, 00:19:21,    337,    0.0,    4.6,   0.00,   0.00, 1022.2,   78.6, -999.0
11-10-2022, 00:19:31,    337,    0.0,    4.5,   0.00,   0.00, 1022.2,   78.6, -999.0
11-10-2022, 00:19:40,    337,    0.0,    4.5,   0.00,   0.00, 1022.2,   78.6, -999.0
11-10-2022, 00:19:51,    337,    0.0,    4.4,   0.00,   0.00, 1022.2,   78.6, -999.0
11-10-2022, 00:20:01,    337,    0.0,    4.5,   0.00,   0.00, 1022.2,   78.8, -999.0
11-10-2022, 00:20:10,    337,    0.0,    4.4,   0.00,   0.00, 1022.2,   78.9, -999.0
11-10-2022, 00:20:20,    337,    0.0,    4.4,   0.00,   0.00, 1022.2,   78.9, -999.0
11-10-2022, 00:20:31,    337,    0.0,    4.3,   0.00,   0.00, 1022.2,   78.9, -999.0
11-10-2022, 00:20:40,    337,    0.0,    4.4,   0.00,   0.00, 1022.2,   78.8, -999.0
11-10-2022, 00:20:50,    337,    0.0,    4.4,   0.00,   0.00, 1022.2,   78.9, -999.0
11-10-2022, 00:21:00,    337,    0.0,    4.2,   0.00,   0.00, 1022.2,   78.9, -999.0
11-10-2022, 00:21:10,    337,    0.0,    4.3,   0.00,   0.00, 1022.3,   78.9, -999.0
11-10-2022, 00:21:20,    337,    0.0,    4.3,   0.00,   0.00, 1022.3,   79.0, -999.0
11-10-2022, 00:21:30,    337,    0.0,    4.2,   0.00,   0.00, 1022.2,   79.0, -999.0
11-10-2022, 00:21:40,    337,    0.0,    4.2,   0.00,   0.00, 1022.2,   79.0, -999.0
11-10-2022, 00:21:50,    337,    0.0,    4.2,   0.00,   0.00, 1022.3,   79.0, -999.0
11-10-2022, 00:22:00,    338,    0.0,    4.2,   0.00,   0.00, 1022.2,   79.0, -999.0
11-10-2022, 00:22:10,    337,    0.0,    4.2,   0.00,   0.00, 1022.2,   79.0, -999.0
11-10-2022, 00:22:20,    337,    0.0,    4.2,   0.00,   0.00, 1022.2,   79.0, -999.0
11-10-2022, 00:22:30,    337,    0.0,    4.2,   0.00,   0.00, 1022.3,   79.0, -999.0
11-10-2022, 00:22:40,    337,    0.0,    4.3,   0.00,   0.00, 1022.3,   79.1, -999.0
11-10-2022, 00:22:49,    337,    0.0,    4.2,   0.00,   0.00, 1022.3,   79.3, -999.0
11-10-2022, 00:23:00,    337,    0.0,    4.3,   0.00,   0.00, 1022.3,   79.4, -999.0
11-10-2022, 00:23:10,    337,    0.0,    4.3,   0.00,   0.00, 1022.3,   79.4, -999.0
11-10-2022, 00:23:20,    337,    0.0,    4.2,   0.00,   0.00, 1022.3,   79.3, -999.0
11-10-2022, 00:23:29,    337,    0.0,    4.2,   0.00,   0.00, 1022.3,   79.2, -999.0
11-10-2022, 00:23:39,    337,    0.0,    4.2,   0.00,   0.00, 1022.3,   79.3, -999.0
11-10-2022, 00:23:49,    337,    0.0,    4.2,   0.00,   0.00, 1022.3,   79.3, -999.0
11-10-2022, 00:23:59,    337,    0.0,    4.2,   0.00,   0.00, 1022.3,   79.3, -999.0
11-10-2022, 00:24:09,    337,    0.0,    4.3,   0.00,   0.00, 1022.3,   79.3, -999.0
11-10-2022, 00:24:19,    337,    0.0,    4.2,   0.00,   0.00, 1022.3,   79.4, -999.0
11-10-2022, 00:24:29,    337,    0.0,    4.2,   0.00,   0.00, 1022.3,   79.4, -999.0
11-10-2022, 00:24:39,    337,    0.0,    4.3,   0.00,   0.00, 1022.3,   79.5, -999.0
11-10-2022, 00:24:49,    337,    0.0,    4.3,   0.00,   0.00, 1022.3,   79.5, -999.0
11-10-2022, 00:24:59,    338,    0.0,    4.3,   0.00,   0.00, 1022.3,   79.5, -999.0
11-10-2022, 00:25:09,    337,    0.0,    4.3,   0.00,   0.00, 1022.3,   79.8, -999.0
11-10-2022, 00:25:19,    337,    0.0,    4.4,   0.00,   0.00, 1022.3,   79.8, -999.0
11-10-2022, 00:25:29,    337,    0.0,    4.4,   0.00,   0.00, 1022.3,   79.9, -999.0
11-10-2022, 00:25:39,    337,    0.0,    4.4,   0.00,   0.00, 1022.3,   79.9, -999.0
11-10-2022, 00:25:49,    337,    0.0,    4.3,   0.00,   0.00, 1022.3,   79.9, -999.0
11-10-2022, 00:25:58,    337,    0.0,    4.4,   0.00,   0.00, 1022.3,   79.8, -999.0
11-10-2022, 00:26:09,    337,    0.0,    4.5,   0.00,   0.00, 1022.3,   79.8, -999.0
11-10-2022, 00:26:19,    337,    0.0,    4.4,   0.00,   0.00, 1022.3,   79.7, -999.0
11-10-2022, 00:26:28,    337,    0.0,    4.5,   0.00,   0.00, 1022.3,   79.8, -999.0
11-10-2022, 00:26:38,    337,    0.0,    4.4,   0.00,   0.00, 1022.3,   79.8, -999.0
11-10-2022, 00:26:48,    337,    0.0,    4.4,   0.00,   0.00, 1022.3,   79.7, -999.0
11-10-2022, 00:26:58,    337,    0.0,    4.4,   0.00,   0.00, 1022.2,   79.6, -999.0
11-10-2022, 00:27:08,    337,    0.0,    4.4,   0.00,   0.00, 1022.2,   79.7, -999.0
11-10-2022, 00:27:18,    337,    0.0,    4.4,   0.00,   0.00, 1022.2,   79.7, -999.0
11-10-2022, 00:27:28,    337,    0.0,    4.5,   0.00,   0.00, 1022.2,   79.6, -999.0
11-10-2022, 00:27:38,    337,    0.0,    4.4,   0.00,   0.00, 1022.2,   79.6, -999.0
11-10-2022, 00:27:48,    337,    0.0,    4.4,   0.00,   0.00, 1022.2,   79.7, -999.0
11-10-2022, 00:27:58,    337,    0.0,    4.4,   0.00,   0.00, 1022.2,   79.6, -999.0
11-10-2022, 00:28:08,    337,    0.0,    4.5,   0.00,   0.00, 1022.2,   79.6, -999.0
11-10-2022, 00:28:18,    337,    0.0,    4.4,   0.00,   0.00, 1022.2,   79.5, -999.0
11-10-2022, 00:28:28,    337,    0.0,    4.4,   0.00,   0.00, 1022.2,   79.5, -999.0
11-10-2022, 00:28:38,    337,    0.0,    4.5,   0.00,   0.00, 1022.2,   79.5, -999.0
11-10-2022, 00:28:48,    337,    0.0,    4.5,   0.00,   0.00, 1022.2,   79.6, -999.0
11-10-2022, 00:28:58,    337,    0.0,    4.5,   0.00,   0.00, 1022.2,   79.7, -999.0
11-10-2022, 00:29:07,    337,    0.0,    4.6,   0.00,   0.00, 1022.2,   79.7, -999.0
11-10-2022, 00:29:18,    337,    0.0,    4.7,   0.00,   0.00, 1022.2,   79.7, -999.0
11-10-2022, 00:29:28,    337,    0.0,    4.6,   0.00,   0.00, 1022.2,   79.6, -999.0
11-10-2022, 00:29:39,    337,    0.0,    4.6,   0.00,   0.00, 1022.2,   79.5, -999.0
11-10-2022, 00:29:47,    337,    0.0,    4.7,   0.00,   0.00, 1022.2,   79.4, -999.0
11-10-2022, 00:29:57,    337,    0.0,    4.7,   0.00,   0.00, 1022.2,   79.3, -999.0
11-10-2022, 00:30:07,    337,    0.0,    4.7,   0.00,   0.00, 1022.2,   79.3, -999.0
11-10-2022, 00:30:17,    337,    0.0,    4.7,   0.00,   0.00, 1022.2,   79.1, -999.0
11-10-2022, 00:30:27,    337,    0.0,    4.7,   0.00,   0.00, 1022.2,   79.0, -999.0
11-10-2022, 00:30:37,    337,    0.0,    4.6,   0.00,   0.00, 1022.2,   79.0, -999.0
11-10-2022, 00:30:47,    337,    0.0,    4.7,   0.00,   0.00, 1022.2,   78.9, -999.0
11-10-2022, 00:30:57,    337,    0.0,    4.6,   0.00,   0.00, 1022.2,   78.8, -999.0
11-10-2022, 00:31:07,    337,    0.0,    4.6,   0.00,   0.00, 1022.2,   78.9, -999.0
11-10-2022, 00:31:17,    337,    0.0,    4.5,   0.00,   0.00, 1022.2,   78.9, -999.0
11-10-2022, 00:31:27,    337,    0.0,    4.5,   0.00,   0.00, 1022.2,   78.9, -999.0
11-10-2022, 00:31:37,    337,    0.0,    4.5,   0.00,   0.00, 1022.2,   78.9, -999.0
11-10-2022, 00:31:47,    337,    0.0,    4.5,   0.00,   0.00, 1022.2,   78.9, -999.0
11-10-2022, 00:31:57,    337,    0.0,    4.5,   0.00,   0.00, 1022.2,   78.9, -999.0
11-10-2022, 00:32:07,    337,    0.0,    4.5,   0.00,   0.00, 1022.2,   78.9, -999.0
11-10-2022, 00:32:16,    337,    0.0,    4.5,   0.00,   0.00, 1022.2,   78.9, -999.0
11-10-2022, 00:32:27,    337,    0.0,    4.5,   0.00,   0.00, 1022.2,   78.9, -999.0
11-10-2022, 00:32:36,    337,    0.0,    4.5,   0.00,   0.00, 1022.2,   78.9, -999.0
11-10-2022, 00:32:46,    337,    0.0,    4.4,   0.00,   0.00, 1022.3,   78.8, -999.0
11-10-2022, 00:32:56,    337,    0.0,    4.4,   0.00,   0.00, 1022.2,   78.9, -999.0
11-10-2022, 00:33:06,    337,    0.0,    4.2,   0.00,   0.00, 1022.3,   79.0, -999.0
11-10-2022, 00:33:16,    337,    0.0,    4.3,   0.00,   0.00, 1022.3,   78.9, -999.0
11-10-2022, 00:33:26,    337,    0.0,    4.3,   0.00,   0.00, 1022.3,   78.9, -999.0
11-10-2022, 00:33:36,    337,    0.0,    4.3,   0.00,   0.00, 1022.3,   79.0, -999.0
11-10-2022, 00:33:46,    337,    0.0,    4.3,   0.00,   0.00, 1022.3,   78.9, -999.0
11-10-2022, 00:33:56,    337,    0.0,    4.2,   0.00,   0.00, 1022.3,   79.0, -999.0
11-10-2022, 00:34:06,    337,    0.0,    4.3,   0.00,   0.00, 1022.3,   79.1, -999.0
11-10-2022, 00:34:16,    337,    0.0,    4.2,   0.00,   0.00, 1022.3,   79.2, -999.0
11-10-2022, 00:34:26,    337,    0.0,    4.3,   0.00,   0.00, 1022.3,   79.3, -999.0
11-10-2022, 00:34:36,    337,    0.0,    4.2,   0.00,   0.00, 1022.3,   79.3, -999.0
11-10-2022, 00:34:46,    337,    0.0,    4.2,   0.00,   0.00, 1022.3,   79.3, -999.0
11-10-2022, 00:34:56,    337,    0.0,    4.3,   0.00,   0.00, 1022.3,   79.4, -999.0
11-10-2022, 00:35:06,    337,    0.0,    4.3,   0.00,   0.00, 1022.3,   79.4, -999.0
11-10-2022, 00:35:16,    337,    0.0,    4.3,   0.00,   0.00, 1022.3,   79.4, -999.0
11-10-2022, 00:35:25,    337,    0.0,    4.3,   0.00,   0.00, 1022.3,   79.5, -999.0
11-10-2022, 00:35:36,    338,    0.0,    4.3,   0.00,   0.00, 1022.3,   79.4, -999.0
11-10-2022, 00:35:45,    337,    0.0,    4.3,   0.00,   0.00, 1022.3,   79.4, -999.0
11-10-2022, 00:35:55,    337,    0.0,    4.3,   0.00,   0.00, 1022.3,   79.4, -999.0
11-10-2022, 00:36:05,    337,    0.0,    4.3,   0.00,   0.00, 1022.3,   79.4, -999.0
11-10-2022, 00:36:15,    337,    0.0,    4.2,   0.00,   0.00, 1022.3,   79.4, -999.0
11-10-2022, 00:36:25,    337,    0.0,    4.3,   0.00,   0.00, 1022.3,   79.3, -999.0
11-10-2022, 00:36:35,    337,    0.0,    4.2,   0.00,   0.00, 1022.3,   79.3, -999.0
11-10-2022, 00:36:45,    337,    0.0,    4.2,   0.00,   0.00, 1022.3,   79.4, -999.0
11-10-2022, 00:36:55,    337,    0.0,    4.2,   0.00,   0.00, 1022.4,   79.4, -999.0
11-10-2022, 00:37:05,    337,    0.0,    4.2,   0.00,   0.00, 1022.3,   79.3, -999.0
11-10-2022, 00:37:15,    337,    0.0,    4.2,   0.00,   0.00, 1022.3,   79.4, -999.0
11-10-2022, 00:37:25,    337,    0.0,    4.2,   0.00,   0.00, 1022.3,   79.4, -999.0
11-10-2022, 00:37:35,    337,    0.0,    4.1,   0.00,   0.00, 1022.3,   79.4, -999.0
11-10-2022, 00:37:45,    337,    0.0,    4.1,   0.00,   0.00, 1022.3,   79.4, -999.0
11-10-2022, 00:37:55,    337,    0.0,    4.2,   0.00,   0.00, 1022.3,   79.4, -999.0
11-10-2022, 00:38:05,    337,    0.0,    4.2,   0.00,   0.00, 1022.3,   79.5, -999.0
11-10-2022, 00:38:15,    337,    0.0,    4.1,   0.00,   0.00, 1022.3,   79.5, -999.0
11-10-2022, 00:38:25,    337,    0.0,    4.2,   0.00,   0.00, 1022.3,   79.4, -999.0
11-10-2022, 00:38:34,    337,    0.0,    4.1,   0.00,   0.00, 1022.3,   79.4, -999.0
11-10-2022, 00:38:45,    337,    0.0,    4.2,   0.00,   0.00, 1022.3,   79.5, -999.0
11-10-2022, 00:38:54,    337,    0.0,    4.1,   0.00,   0.00, 1022.3,   79.5, -999.0
11-10-2022, 00:39:04,    337,    0.0,    4.0,   0.00,   0.00, 1022.3,   79.5, -999.0
11-10-2022, 00:39:14,    337,    0.0,    4.1,   0.00,   0.00, 1022.3,   79.5, -999.0
11-10-2022, 00:39:24,    337,    0.0,    4.0,   0.00,   0.00, 1022.3,   79.5, -999.0
11-10-2022, 00:39:34,    337,    0.0,    4.0,   0.00,   0.00, 1022.3,   79.5, -999.0
11-10-2022, 00:39:44,    337,    0.0,    4.1,   0.00,   0.00, 1022.3,   79.5, -999.0
11-10-2022, 00:39:54,    337,    0.0,    4.0,   0.00,   0.00, 1022.4,   79.5, -999.0
11-10-2022, 00:40:04,    337,    0.0,    4.1,   0.00,   0.00, 1022.4,   79.4, -999.0
11-10-2022, 00:40:14,    337,    0.0,    4.1,   0.00,   0.00, 1022.4,   79.5, -999.0
11-10-2022, 00:40:24,    337,    0.0,    4.1,   0.00,   0.00, 1022.4,   79.6, -999.0
11-10-2022, 00:40:34,    337,    0.0,    4.1,   0.00,   0.00, 1022.4,   79.8, -999.0
11-10-2022, 00:40:44,    337,    0.0,    4.1,   0.00,   0.00, 1022.4,   79.9, -999.0
11-10-2022, 00:40:54,    337,    0.0,    4.2,   0.00,   0.00, 1022.4,   80.0, -999.0
11-10-2022, 00:41:04,    337,    0.0,    4.2,   0.00,   0.00, 1022.3,   80.1, -999.0
11-10-2022, 00:41:14,    337,    0.0,    4.3,   0.00,   0.00, 1022.4,   80.2, -999.0
11-10-2022, 00:41:24,    337,    0.0,    4.3,   0.00,   0.00, 1022.4,   80.0, -999.0
11-10-2022, 00:41:34,    337,    0.0,    4.2,   0.00,   0.00, 1022.4,   79.9, -999.0
11-10-2022, 00:41:43,    337,    0.0,    4.3,   0.00,   0.00, 1022.4,   79.9, -999.0
11-10-2022, 00:41:54,    337,    0.0,    4.2,   0.00,   0.00, 1022.4,   79.8, -999.0
11-10-2022, 00:42:03,    338,    0.0,    4.2,   0.00,   0.00, 1022.3,   79.7, -999.0
11-10-2022, 00:42:13,    337,    0.0,    4.2,   0.00,   0.00, 1022.4,   79.7, -999.0
11-10-2022, 00:42:23,    337,    0.0,    4.2,   0.00,   0.00, 1022.3,   79.7, -999.0
11-10-2022, 00:42:33,    337,    0.0,    4.2,   0.00,   0.00, 1022.3,   79.5, -999.0
11-10-2022, 00:42:43,    337,    0.0,    4.1,   0.00,   0.00, 1022.4,   79.5, -999.0
11-10-2022, 00:42:53,    337,    0.0,    4.1,   0.00,   0.00, 1022.3,   79.5, -999.0
11-10-2022, 00:43:03,    337,    0.0,    4.1,   0.00,   0.00, 1022.3,   79.5, -999.0
11-10-2022, 00:43:13,    337,    0.0,    4.1,   0.00,   0.00, 1022.4,   79.5, -999.0
11-10-2022, 00:43:23,    337,    0.0,    4.1,   0.00,   0.00, 1022.3,   79.6, -999.0
11-10-2022, 00:43:33,    339,    0.0,    4.2,   0.00,   0.00, 1022.3,   79.8, -999.0
11-10-2022, 00:43:43,    337,    0.0,    4.2,   0.00,   0.00, 1022.4,   79.9, -999.0
11-10-2022, 00:43:53,    337,    0.0,    4.2,   0.00,   0.00, 1022.4,   79.9, -999.0
11-10-2022, 00:44:03,    337,    0.0,    4.1,   0.00,   0.00, 1022.3,   80.0, -999.0
11-10-2022, 00:44:13,    337,    0.0,    4.2,   0.00,   0.00, 1022.4,   80.0, -999.0
11-10-2022, 00:44:23,    337,    0.0,    4.2,   0.00,   0.00, 1022.3,   80.1, -999.0
11-10-2022, 00:44:33,    337,    0.0,    4.1,   0.00,   0.00, 1022.4,   80.1, -999.0
11-10-2022, 00:44:42,    337,    0.0,    4.1,   0.00,   0.00, 1022.3,   80.1, -999.0
11-10-2022, 00:44:52,    337,    0.0,    4.2,   0.00,   0.00, 1022.4,   80.0, -999.0
11-10-2022, 00:45:03,    337,    0.0,    4.2,   0.00,   0.00, 1022.3,   80.0, -999.0
11-10-2022, 00:45:12,    337,    0.0,    4.3,   0.00,   0.00, 1022.3,   80.0, -999.0
11-10-2022, 00:45:22,    337,    0.0,    4.3,   0.00,   0.00, 1022.3,   80.1, -999.0
11-10-2022, 00:45:33,    337,    0.0,    4.2,   0.00,   0.00, 1022.4,   80.1, -999.0
11-10-2022, 00:45:42,    337,    0.0,    4.2,   0.00,   0.00, 1022.4,   80.1, -999.0
11-10-2022, 00:45:52,    337,    0.0,    4.2,   0.00,   0.00, 1022.4,   80.0, -999.0
11-10-2022, 00:46:02,    337,    0.0,    4.2,   0.00,   0.00, 1022.4,   80.0, -999.0
11-10-2022, 00:46:12,    337,    0.0,    4.2,   0.00,   0.00, 1022.4,   79.9, -999.0
11-10-2022, 00:46:22,    337,    0.0,    4.2,   0.00,   0.00, 1022.4,   79.9, -999.0
11-10-2022, 00:46:32,    336,    0.0,    4.2,   0.00,   0.00, 1022.4,   80.0, -999.0
11-10-2022, 00:46:42,    337,    0.0,    4.2,   0.00,   0.00, 1022.4,   80.0, -999.0